Погода в Косалме

Россия / Республика Карелия     62°01′15″N   34°07′24″E
темп.,
°C
ветер,
м/с
пор.,
м/с
влажн.,
%
обл.,
%
осадки,
мм/ч
давл.,
гПа
погр.,
м
17 мая, пн
пн1700:00+11юв119799 0.0 101111
03:00+11ю119872 0.0 101222
06:00+12ююз12915 0.0 101397
09:00+17ююз23675 0.0 1014558
12:00+21юв23515 0.0 10141268
15:00+19вюв4662100 0.0 1015560
18:00+18вюв4869100 0.0 1013350
21:00+14вюв21081100 0.0 1013233
18 мая, вт
вт1800:00+13вюв3138393 0.0 1012329
03:00+12вюв4148997 0.0 1011360
06:00+13вюв41392100 1.9 1010475
09:00+16вюв3783100 2.1 1009373
12:00+24юв51054100 0.0 10071208
15:00+27ююв51041100 0.0 10072051
18:00+26юв4104689 0.0 10061551
21:00+21юв41358100 0.0 1006486
19 мая, ср
ср1900:00+20ююв41563100 0.0 1007590
03:00+18ююв311755 0.0 1007308
06:00+17вюв3108116 0.0 1007324
09:00+22юв4105927 0.0 1006827
12:00+27ююв615405 0.0 10052626
15:00+29ююв6173410 0.0 10053619
18:00+18в357820 1.4 1005183
21:00+19ююз31181100 4.4 1005490
20 мая, чт
чт2000:00+14ю31192100 3.9 1006480
03:00+13юв22965 3.9 100768
06:00+15ю27905 0.0 1007280
09:00+19ююз367319 0.0 1007833
12:00+23ю2654100 0.0 10071750
15:00+21ю1267100 0.6 1007715
18:00+19ссз337632 1.6 1006461
21:00+16ююв3991100 5.6 1007388
21 мая, пт
пт2100:00+14с3896100 0.3 1005261
03:00+13ссв3696100 1.0 1005324
06:00+12с4894100 0.3 1003318
09:00+12ссв3897100 1.4 1002436
12:00+14всв259799 0.5 1000305
15:00+18юв257828 0.8 999868
18:00+17юв3781100 2.4 998660
21:00+13ююв269115 2.9 999146